• Processing (Info)

  • MPEC 2023-G33 : 2023 FW13

    The following Minor Planet Electronic Circular may be linked-to from your own Web pages, but must not otherwise be redistributed electronically.

    A form allowing access to any MPEC is at the bottom of this page.


    Read MPEC 2023-G32 Read MPEC 2023-G34


    M.P.E.C. 2023-G33                                 Issued 2023 April 5, 14:08 UT
    
         The Minor Planet Electronic Circulars contain information on unusual
             minor planets, routine data on comets and natural satellites,
             and occasional editorial announcements.  They are published
        on behalf of Division F of the International Astronomical Union by the
              Minor Planet Center, Smithsonian Astrophysical Observatory,
                              Cambridge, MA 02138, U.S.A.
    			  
                 Prepared using the Tamkin Foundation Computer Network
    
                                  MPC@CFA.HARVARD.EDU
                URL https://www.minorplanetcenter.net/    ISSN 1523-6714
    
                                    2023 FW13                                
    
    
                               Revision to MPEC 2023-G10                            
    
    Additional Observations:
         K23F13W  C2012 05 21.35567714 35 55.139-10 07 11.40         22.91GVEG033F51
         K23F13W  C2012 05 21.37018914 35 52.264-10 07 13.86         21.91GVEG033F51
         K23F13W  C2013 04 19.55601915 58 20.349-07 20 34.62         22.94GVEG033F51
         K23F13W  C2013 05 09.40898214 44 45.260-07 00 08.09         23.04GVEG033F51
         K23F13W  C2013 05 09.42295414 44 41.914-07 00 08.94         23.68GVEG033F51
         K23F13W  C2014 04 29.35747114 50 36.456-03 53 24.09         22.69GVEG033F51
         K23F13W  C2014 04 29.39517414 50 26.739-03 53 23.38         22.84GVEG033F51
         K23F13W  C2015 04 20.44154214 54 49.207-00 45 33.71         22.65GVEG033F51
         K23F13W &C2016 04 10.27973715 02 14.28 +02 30 57.2          23.3 gWEG033W84
         K23F13W  C2016 04 10.54272015 01 07.485+02 31 02.83         22.66GVEG033F51
         K23F13W  C2016 04 10.55569015 01 03.875+02 31 05.79         22.59GVEG033F51
         K23F13W  C2016 04 10.56796015 01 00.527+02 31 09.16         22.30GVEG033F51
         K23F13W &C2017 04 22.16525713 43 41.40 +05 50 32.3          22.3 rWEG033W84
         K23F13W  C2018 04 12.34907813 55 26.969+10 02 18.45         22.77GVEG033F51
         K23F13W  C2018 04 12.36205013 55 23.265+10 02 14.84         22.25GVEG033F51
         K23F13W  C2018 04 12.38794013 55 15.727+10 02 07.16         22.02GVEG033F51
         K23F13W &C2018 04 14.26547313 47 09.65 +09 50 52.7          22.3 iWEG033W84
         K23F13W  C2019 04 07.52687313 50 41.627+13 58 53.69         21.57GVEG033F51
         K23F13W  C2019 04 07.53925013 50 37.734+13 58 46.54         22.54GVEG033F51
         K23F13W  C2019 04 07.55155413 50 33.871+13 58 39.73         21.75GVEG033F51
         K23F13W  C2019 04 07.56380213 50 30.056+13 58 32.93         21.95GVEG033F51
         K23F13W  C2019 04 09.30783013 42 31.984+13 42 47.21         22.58GVEG033F51
         K23F13W  C2019 04 09.32008613 42 28.402+13 42 40.98         21.79GVEG033F51
         K23F13W  C2019 04 09.33230513 42 24.807+13 42 34.55         21.85GVEG033F51
         K23F13W  C2021 04 09.48293112 56 52.269+18 10 58.41         22.05GVEG033F51
         K23F13W  C2021 04 09.51774412 56 43.506+18 10 09.70         22.16GVEG033F51
         K23F13W 5C2021 04 13.40005912 43 43.74 +16 42 30.8          22.9 rWEG033T14
         K23F13W  C2022 04 08.30564112 50 25.210+19 51 13.90         22.60GVEG033F52
         K23F13W  C2022 04 08.31907112 50 21.863+19 50 55.04         22.25GVEG033F52
         K23F13W  C2022 04 08.33248112 50 18.515+19 50 35.92         22.53GVEG033F52
         K23F13W &C2022 04 24.13868112 13 16.74 +13 15 29.8          23.4 gWEG033W84
    
    Observer details:
    F51 Pan-STARRS 1, Haleakala.  Observers J. Bulger, K. Chambers, T. Lowe, A.
        Schultz, I. Smith.  Measurers S. Chastel, J. Fairlamb, M. Huber, Y.
        Ramanjooloo, R. Wainscoat, R. Weryk.  1.8-m Ritchey-Chretien + CCD.
    F52 Pan-STARRS 2, Haleakala.  Observers J. Bulger, K. Chambers, T. Dukes, T.
        Lowe, A. Schultz, I. Smith.  Measurers S. Chastel, J. Fairlamb, M. Huber,
        Y. Ramanjooloo, R. Wainscoat, R. Weryk.  1.8-m Ritchey-Chretien + CCD.
    T14 Canada-France-Hawaii Telescope, Maunakea.  Observer A. Boselli.  Measurer
        S. Deen.  3.58-m Canada-France-Hawaii Telescope + CCD.
    W84 Cerro Tololo-DECam.  Observers A. Dey, D. James, C. Freitas, J. Macedo, M.
        Graham.  Measurer S. Deen.  4.0-m reflector + CCD.
    
    Orbital elements:
    2023 FW13                                                Earth MOID = 0.0455 AU
    Epoch 2023 Feb. 25.0 TT = JDT 2460000.5                 Veres                   
    M  73.08861              (2000.0)            P               Q                  
    n   0.98516707     Peri.  354.40307     +0.42313760     -0.90494009             
    a   1.0002981      Node    70.55742     +0.83314503     +0.36901692             
    e   0.1777446      Incl.    2.74404     +0.35612348     +0.21191967             
    P   1.00           H   26.01          G   0.15           U   1                  
    Residuals in seconds of arc
    120521 F51  0.1+  0.1-    180412 F51  0.4-  0.4+    220424 W84  0.3+  0.2+
    120521 F51  0.4+  0.3-    180414 W84  0.0   0.0     230328 F52  0.1+  0.0
    130419 F51  0.2+  0.0     190407 F51  0.2-  0.4+    230328 F52  0.1-  0.0
    130509 F51  0.1-  0.1-    190407 F51  0.1-  0.1-    230328 F52  0.3+  0.1+
    130509 F51  0.2-  0.0     190407 F51  0.0   0.2-    230330 T14  0.0   0.0
    140429 F51  0.2-  0.2+    190407 F51  0.2+  0.3-    230330 T14  0.0   0.0
    140429 F51  0.4-  0.4+    190409 F51  0.1+  0.1+    230330 T14  0.1+  0.0
    150420 F51  0.2+  0.1+    190409 F51  0.0   0.0     230330 T14  0.1+  0.0
    160410 W84  0.5+  0.1+    190409 F51  0.1-  0.3-    230401 695  0.1+  0.0
    160410 F51  0.3-  0.1-    210409 F51  0.1+  0.3+    230401 695  0.4-  0.1-
    160410 F51  0.4-  0.2-    210409 F51  0.3+  0.1+    230401 695  0.2-  0.2+
    160410 F51  0.4+  0.2+    210413 T14  0.2-  0.0     230401 I52  0.3+  0.1-
    170422 W84  0.0   0.0     220408 F52  0.1+  0.1+    230401 I52  0.7-  0.2-
    180412 F51  0.2+  0.2-    220408 F52  0.0   0.2+    230401 I52  0.6-  0.7-
    180412 F51  0.5+  0.1+    220408 F52  0.0   0.2+    230401 I52  0.3-  0.4-
    
    Ephemeris:
    2023 FW13                a,e,i = 1.00, 0.18, 3                   q = 0.8225
    Date    TT    R. A. (2000) Decl.     Delta      r    Elong.  Phase     V
    2023 03 06    16 25 00.6 +25 44 58   0.06590 1.0069   101.4    74.9    22.7
    ...
    2023 03 21    14 26 15.1 +27 01 47   0.07496 1.0508   135.6    41.5    22.1
    ...
    2023 03 29    13 32 48.1 +24 48 53   0.08632 1.0723   148.0    29.5    22.1
    ...
    2023 04 04    13 01 50.5 +22 22 19   0.09810 1.0875   152.1    25.5    22.3
    2023 04 05    12 57 28.2 +21 56 01   0.1003  1.0899   152.3    25.3    22.4
    2023 04 06    12 53 18.9 +21 29 27   0.1026  1.0923   152.3    25.2    22.4
    ...
    2023 04 12    12 32 37.6 +18 48 02   0.1178  1.1061   150.5    26.5    22.8
    ...
    2023 04 20    12 14 46.4 +15 18 42   0.1416  1.1229   144.6    31.2    23.4
    ...
    2023 05 05    12 03 01.4 +09 25 01   0.1948  1.1486   132.3    40.5    24.4
    
    A. U. Tomatic                (C) Copyright 2023 MPC           M.P.E.C. 2023-G33
    


    Read MPEC 2023-G32 Read MPEC 2023-G34


    MPEC number:

    Enter an MPEC number in one of the following forms:

    • 1997-B01 (the full form)
    • J97B01 (the packed version of the full form)
    • B01 (the abbreviated form)